TimeCDT,TemperatureF,Dew PointF,Humidity,Sea Level PressureIn,VisibilityMPH,Wind Direction,Wind SpeedMPH,Gust SpeedMPH,PrecipitationIn,Events,Conditions,WindDirDegrees,DateUTC
12:53 AM,44.1,35.1,71,30.05,9.0,SSE,11.5,-,N/A,,Overcast,150,2013-03-30 05:53:00
1:53 AM,44.1,34.0,68,30.01,9.0,SSE,13.8,-,N/A,,Overcast,150,2013-03-30 06:53:00
2:53 AM,43.0,33.1,68,29.99,9.0,SSE,10.4,-,N/A,,Overcast,160,2013-03-30 07:53:00
3:53 AM,42.1,33.1,70,29.96,9.0,SSE,10.4,-,0.00,,Overcast,150,2013-03-30 08:53:00
4:38 AM,44.6,33.8,66,29.92,10.0,South,12.7,-,0.00,Thunderstorm,Overcast,180,2013-03-30 09:38:00
4:53 AM,44.1,33.1,65,29.96,7.0,West,5.8,-,0.01,Rain-Thunderstorm,Light Rain,270,2013-03-30 09:53:00
5:08 AM,42.8,33.8,70,29.95,5.0,North,-9999.0,-,0.02,Rain,Light Rain,0,2013-03-30 10:08:00
5:53 AM,39.9,36.0,86,29.94,4.0,North,-9999.0,-,0.09,Rain,Light Rain,0,2013-03-30 10:53:00
6:53 AM,39.0,37.0,93,29.91,4.0,North,-9999.0,-,0.02,,Overcast,0,2013-03-30 11:53:00
7:53 AM,41.0,36.0,82,29.90,5.0,North,-9999.0,-,0.01,Rain,Light Rain,0,2013-03-30 12:53:00
8:04 AM,41.0,37.4,87,29.88,7.0,North,-9999.0,-,0.00,Rain,Light Rain,0,2013-03-30 13:04:00
8:53 AM,39.9,37.0,89,29.90,5.0,North,-9999.0,-,0.01,Rain,Light Rain,0,2013-03-30 13:53:00
9:53 AM,39.9,37.0,89,29.89,5.0,North,-9999.0,-,0.00,,Overcast,0,2013-03-30 14:53:00
10:53 AM,42.1,39.0,89,29.89,5.0,North,-9999.0,-,N/A,,Overcast,0,2013-03-30 15:53:00
11:02 AM,42.8,39.2,87,29.87,5.0,North,-9999.0,-,N/A,,Mostly Cloudy,0,2013-03-30 16:02:00
11:49 AM,48.2,41.0,76,29.87,7.0,North,-9999.0,-,N/A,,Mostly Cloudy,0,2013-03-30 16:49:00
11:53 AM,48.0,41.0,77,29.88,7.0,North,-9999.0,-,N/A,,Scattered Clouds,0,2013-03-30 16:53:00
12:53 PM,50.0,42.1,74,29.88,7.0,WNW,11.5,-,N/A,,Partly Cloudy,300,2013-03-30 17:53:00
1:53 PM,51.1,41.0,68,29.87,8.0,NW,11.5,-,N/A,,Clear,320,2013-03-30 18:53:00
2:53 PM,52.0,41.0,66,29.86,9.0,NNW,9.2,-,N/A,,Clear,330,2013-03-30 19:53:00
3:53 PM,53.1,41.0,64,29.86,8.0,West,5.8,-,N/A,,Partly Cloudy,270,2013-03-30 20:53:00
4:53 PM,52.0,39.9,63,29.86,9.0,WNW,10.4,-,N/A,,Clear,290,2013-03-30 21:53:00
5:53 PM,50.0,39.0,66,29.86,9.0,West,13.8,-,N/A,,Clear,280,2013-03-30 22:53:00
6:53 PM,46.9,37.0,68,29.87,8.0,West,10.4,-,N/A,,Clear,280,2013-03-30 23:53:00
7:53 PM,41.0,36.0,82,29.87,5.0,West,4.6,-,N/A,,Haze,270,2013-03-31 00:53:00
8:53 PM,39.0,34.0,82,29.89,6.0,West,4.6,-,N/A,,Haze,260,2013-03-31 01:53:00
9:53 PM,37.0,32.0,82,29.89,6.0,West,5.8,-,N/A,,Haze,280,2013-03-31 02:53:00
10:53 PM,36.0,30.9,82,29.89,6.0,West,5.8,-,N/A,,Haze,270,2013-03-31 03:53:00
11:53 PM,34.0,30.0,85,29.87,5.0,West,5.8,-,N/A,,Clear,280,2013-03-31 04:53:00